Regional Weather Roundup
Issued by NWS

Home | Current Version | Previous Version | Graphics & Text | Print | Product List | Glossary On
Versions: 1 2 3 4 5 6 7 8 9 10 11 12 13 14 15 16 17 18 19 20 21 22 23 24 25 26 27 28 29 30 31 32 33 34 35 36 37 38 39 40 41 42 43 44 45 46 47 48 49 50
000
ASUS43 KLOT 270809
RWRIL

ILLINOIS REGIONAL WEATHER ROUNDUP
NATIONAL WEATHER SERVICE CHICAGO/ROMEOVILLE IL
300 AM CDT SAT AUG 27 2016

NOTE: "FAIR" INDICATES FEW OR NO CLOUDS BELOW 12,000 FEET WITH NO
SIGNIFICANT WEATHER AND/OR OBSTRUCTIONS TO VISIBILITY.

* THESE STATIONS ARE NOT UNDER NWS QUALITY CONTROL. THEY ALSO MAY NOT
  REPORT WEATHER SUCH AS PRECIPITATION OR FOG.

ILZ001-002-007-009-015-016-024-270900-
NORTHWEST ILLINOIS

CITY           SKY/WX    TMP DP  RH WIND       PRES   REMARKS
MOLINE         CLOUDY    69  67  93 E7        30.02F
STERLING*      LGT RAIN  68  67  96 E8        30.07S
SAVANNA*       HVY RAIN  67  66  97 N5        30.04F
$$

ILZ003-004-008-010-011-017-018-270900-
NORTH CENTRAL ILLINOIS

CITY           SKY/WX    TMP DP  RH WIND       PRES   REMARKS
ROCKFORD       LGT RAIN  65  62  90 E5        30.08F
FREEPORT*      CLOUDY    63  62  97 E9        30.09F
ROCHELLE*      LGT RAIN  65  64  96 NE6       30.08F
DE KALB*       CLOUDY    65  64  94 E7        30.08F
$$

ILZ005-006-012>014-019>023-270900-
NORTHEAST ILLINOIS

CITY           SKY/WX    TMP DP  RH WIND       PRES   REMARKS
CHICAGO-OHARE  LGT RAIN  69  64  84 E8        30.08F
CHICAGO-MIDWAY CLOUDY    72  65  78 E10       30.07F
AURORA         LGT RAIN  69  66  90 E6        30.08F
LANSING*       RAIN      70  67  89 NE3       30.08F
JOLIET*        MOCLDY    71  69  91 NE5       30.06F
WAUKEGAN       CLOUDY    68  64  87 E5        30.09F
DUPAGE AIRPORT LGT RAIN  68  64  87 E8        30.07F
KANKAKEE*      CLOUDY    68  67  96 E3        30.07F
WHEELING       LGT RAIN  68  65  90 E3        30.09F
MORRIS*        TSTM      69  67  95 CALM      30.05F
ROMEOVILLE*    MOCLDY    69  69 100 E8        30.07F
NORTHERLY ISL    N/A     71  63  75 NE8         N/A
$$

LMZ740>746-270900-
SOUTHERN LAKE MICHIGAN

STATION/POSITION SKY/WX   TEMP    WIND        PRES    VSBY  WAVE
                          AIR SEA DIR/SP/G                  HT/PER
                          (F)     (DEG/KT/KT) (MB)    (MI)  (FT/S)
SOUTHERN BUOY              71 74   90/ 14/ 16 1018.9F         2/ 3
WILMETTE HARBOR            71 70  120/ 10/ 14   N/A           2/ 3
HARRISON CRIB              73      70/ 11/ 13   N/A
BURNHAM HARBOR             71      60/  8/  9   N/A
CALUMET HARBOR             71      40/  7/  9 1018.9F
BURNS HARBOR               71      70/  6/  8 1019.6F
MICHIGAN CITY              70      40/  7/  7   N/A
MICHIGAN CITY 6N           72 74   80/ 10/ 12   N/A           2/ 4
ST. JOSEPH                 70 76   70/  8/ 12 1018.9F         1/ 3
$$

ILZ025>027-034>036-040-047-049-050-058-095>099-270900-
WEST-CENTRAL ILLINOIS

CITY           SKY/WX    TMP DP  RH WIND       PRES   REMARKS
QUINCY         CLOUDY    71  71 100 CALM      30.02F
GALESBURG*     CLOUDY    70  69  98 CALM      30.05R
MACOMB*        CLOUDY    70  70  99 SE10      30.05F
JACKSONVILLE*  CLOUDY    74  72  95 CALM      30.03S
PITTSFIELD*    CLOUDY    73  73  98 CALM      30.04F
$$

ILZ028>032-037-038-041>044-048-051>054-059>061-270900-
CENTRAL ILLINOIS

CITY           SKY/WX    TMP DP  RH WIND       PRES   REMARKS
PONTIAC        CLOUDY    70  70  99 E3        30.06F
BLOOMINGTON    CLOUDY    70  70 100 E5        30.07F FOG
DECATUR        LGT RAIN  74  71  91 S10       30.06S
PEORIA         LGT RAIN  71  71 100 NE3       30.05F
LACON*         CLOUDY    70  68  96 W3        30.08R
LINCOLN*       CLOUDY    71  71  99 CALM      30.05S
SPRINGFIELD    CLOUDY    76  72  87 S8        30.05F
TAYLORVILLE    CLOUDY    72  71  98 S6        30.05F
$$

ILZ033-039-045-046-055>057-062-063-270900-
EAST-CENTRAL ILLINOIS

CITY           SKY/WX    TMP DP  RH WIND       PRES   REMARKS
CHAMPAIGN      CLOUDY    73  70  90 S22G30    30.08R
RANTOUL*       MOCLDY    73  71  95 CALM      30.06F
MATTOON        LGT RAIN  72  70  93 SE3       30.07F
PARIS*         CLOUDY    70  70 100 S3        30.08S THUNDER
$$

ILZ079-100>102-270900-
SOUTHWEST ILLINOIS

CITY           SKY/WX    TMP DP  RH WIND       PRES   REMARKS
ALTON          MOCLDY    73  72  96 SW5       30.05F
BELLEVILLE     CLOUDY    73  73  99 S2        30.04S
CAHOKIA*       CLOUDY    75  71  87 CALM      30.04F
SPARTA*        MOCLDY    71  69  94 CALM      30.05F
$$

ILZ064>066-069>071-074>076-080>082-084>086-088>090-092>094-270900-
SOUTH-CENTRAL ILLINOIS

CITY           SKY/WX    TMP DP  RH WIND       PRES   REMARKS
CARBONDALE     CLOUDY    71  67  87 CALM      30.04F
CAIRO*         CLOUDY    70  70 100 NW6       30.04S
EFFINGHAM*     MOCLDY    73  73 100 CALM      30.08F
MARION         CLOUDY    73  70  88 S3        30.04F
MT. VERNON     CLOUDY    72  64  78 CALM      30.05F
CENTRALIA*     CLOUDY    72  69  91 CALM      30.05S
SALEM*         MOCLDY    73  68  84 CALM      30.07S
METROPOLIS*    CLOUDY    72  71  98 CALM      30.04F
$$

ILZ067-068-072-073-078-083-087-091-270900-
SOUTHEAST ILLINOIS

CITY           SKY/WX    TMP DP  RH WIND       PRES   REMARKS
LAWRENCEVILLE  CLOUDY    75  71  87 W3        30.06F
FLORA*         CLOUDY    73  71  93 SE6       30.06F
FAIRFIELD*     MOCLDY    72  70  94 CALM      30.04F
HARRISBURG*    MOCLDY    72  71  98 NE5       30.03F
ROBINSON*      CLOUDY    73  72  95 W6        30.09F
CARMI*         CLOUDY    71  71 100 NW3       30.02F
$$

ABBREVIATIONS USED IN REMARKS
   TC - TEMPERATURE IN CELSIUS
  WCI - WIND CHILL INDEX
   HX - HEAT INDEX
  VSB - VISIBILITY
$$





USA.gov is the U.S. government's official web portal to all federal, state and local government web resources and services.